Location: Ceske Budejovice
(48.9833°N, 14.4667°E)
Time: 11:51:47
(UTC+01:00)

ISS - Visible Passes

Search period start: 20 January 2018 00:00
Search period end: 30 January 2018 00:00
Orbit: 402 x 407 km, 51.6° (Epoch: 20 January)

Date Brightness Start Highest point End Pass type
(mag) Time Alt. Az. Time Alt. Az. Time Alt. Az.
26 Jan -2.1 18:54:22 10° SSW 18:56:12 24° S 18:56:12 24° S visible
27 Jan -2.0 18:02:41 10° S 18:05:03 19° SE 18:06:11 16° ESE visible
27 Jan -1.1 19:37:54 10° WSW 19:38:51 18° WSW 19:38:51 18° WSW visible
28 Jan -3.6 18:45:35 10° SW 18:48:45 56° SSE 18:48:45 56° SSE visible
29 Jan -2.9 17:53:27 10° SW 17:56:28 35° SSE 17:58:36 16° E visible
29 Jan -1.7 19:29:35 10° W 19:31:15 27° W 19:31:15 27° W visible
